GFSCGP_850_spd_273.txt.gz
Wind_Speed
4 5 7 7 9 11 13 13 15 10 3 10 12 11 9 10 14 13 10 8 8 10 10 12 12 14 14 14 15 18 18 17 17 17 16 18 19 17 15 14 14 12 12 13
6 8 3 11 14 17 16 17 8 9 8 8 10 9 6 7 7 8 9 7 7 8 7 10 13 13 12 13 14 18 20 21 21 22 24 24 21 16 16 13 11 14 15 15
9 4 4 11 10 11 4 5 10 8 12 12 13 4 6 4 6 7 6 6 6 6 6 8 9 10 11 13 15 19 20 20 20 22 25 25 21 19 14 17 16 16 16 15
8 3 4 5 4 1 3 0 15 19 8 4 9 2 8 8 7 5 4 5 6 5 5 5 6 7 11 13 15 19 22 22 23 26 25 22 20 18 19 20 19 18 19 16
4 2 4 7 4 1 5 10 14 14 3 7 9 4 3 7 10 10 8 6 4 5 4 2 4 7 10 13 15 17 18 18 21 22 21 20 21 21 21 20 21 21 18 15
5 2 4 4 5 7 15 7 4 6 2 4 4 4 7 7 12 8 8 5 5 5 5 4 6 9 10 12 15 15 16 18 18 20 20 21 21 21 22 23 22 19 16 14
4 5 3 6 2 5 6 1 5 5 4 4 1 6 4 10 1 2 8 5 4 5 4 3 10 13 11 13 12 14 15 16 19 22 20 21 22 21 23 23 23 22 16 14
2 2 6 9 4 3 5 3 4 6 5 5 2 3 5 10 11 11 7 6 4 4 5 6 8 10 10 11 13 13 15 18 22 18 19 21 18 20 21 22 23 21 18 16
3 4 2 7 8 4 2 4 3 2 1 3 2 0 9 7 7 6 6 6 4 8 6 8 9 8 8 11 11 14 17 20 19 19 20 18 19 18 19 19 19 17 15 15
2 4 3 3 3 11 6 2 2 2 5 9 1 2 5 11 1 4 4 6 8 6 7 7 7 5 7 12 14 17 18 19 19 20 19 19 18 16 16 15 16 15 13 12
2 2 3 1 6 7 6 4 4 1 3 3 4 4 4 7 3 3 4 5 4 3 2 2 4 10 11 13 15 16 18 19 20 18 17 17 16 15 16 16 15 14 13 12
4 2 3 3 1 6 8 5 3 3 2 2 2 3 4 4 5 4 4 5 2 4 4 6 8 11 12 13 14 14 17 18 16 17 16 19 20 23 20 16 15 14 10 8
2 3 2 3 5 3 6 7 3 1 1 4 4 3 4 3 3 6 6 8 7 6 6 8 11 12 13 13 15 17 17 16 16 16 18 19 20 21 17 14 13 11 3 5
4 3 3 3 3 2 3 9 7 3 4 2 4 3 3 2 4 5 6 7 7 7 8 10 12 13 13 15 17 18 17 16 16 16 18 16 19 20 18 15 13 11 10 5
3 3 4 6 6 7 5 6 10 10 5 4 3 4 3 5 4 6 6 6 6 7 10 12 14 15 15 18 17 16 15 14 15 18 14 13 18 22 17 14 16 15 8 4
3 4 3 3 5 5 6 4 4 5 3 1 2 3 4 6 8 7 6 5 6 8 10 12 13 14 14 16 17 16 15 15 17 13 11 16 20 19 18 14 13 13 14 9
2 5 2 2 4 4 2 4 3 2 2 3 6 3 8 5 5 6 5 5 7 9 10 11 12 12 16 16 14 14 14 14 13 11 14 18 21 19 19 19 17 16 15 14
4 3 2 2 2 1 2 2 5 5 4 2 0 2 3 4 5 5 4 5 7 8 9 10 11 13 13 14 13 12 13 13 12 11 15 18 21 22 18 17 16 15 15 16
4 4 3 1 0 2 2 1 3 4 6 4 1 4 6 8 6 4 4 5 7 8 10 10 12 12 12 13 13 11 12 11 11 15 17 19 20 21 18 20 19 18 17 18
7 7 2 1 1 1 1 1 5 3 1 4 2 3 7 7 4 5 3 4 7 9 8 10 12 11 12 12 11 11 12 13 16 17 17 17 18 19 16 16 18 19 18 17
2 3 4 1 1 1 1 5 1 4 4 2 2 2 7 1 3 6 4 5 7 7 8 11 12 13 12 12 11 13 13 14 14 13 15 14 16 16 17 16 21 26 27 27
1 1 1 1 1 1 3 1 3 3 3 3 3 4 5 6 7 6 3 4 5 7 9 10 9 11 10 9 11 13 13 14 14 13 11 13 16 17 16 18 23 21 21 24
1 1 2 2 2 2 3 3 8 6 6 4 5 6 8 8 6 4 3 4 4 6 8 9 9 9 7 6 11 14 14 13 12 12 14 18 20 22 23 23 20 20 22 21
1 1 0 1 1 1 2 8 6 6 7 6 7 7 5 6 4 2 2 3 4 4 6 7 7 8 5 7 11 14 12 13 14 18 22 26 25 23 23 21 19 21 25 22
2 3 1 1 2 2 5 6 7 7 7 8 7 4 5 4 3 2 3 4 3 3 6 6 7 7 8 10 12 11 13 18 23 25 23 22 23 21 18 18 18 19 21 23
2 1 0 2 3 2 1 11 8 7 8 8 5 6 7 4 3 4 5 5 4 7 6 7 6 4 8 12 13 14 19 19 19 21 20 20 19 21 18 17 16 19 17 19

GFSCGP_850_spd_276.txt.gz
Wind_Speed
6 8 9 11 10 10 8 10 12 9 6 5 8 9 7 7 7 9 8 7 8 10 10 10 13 10 11 12 14 17 17 19 17 15 15 15 15 14 13 12 12 9 10 11
6 10 7 8 7 8 8 9 8 6 4 4 7 6 7 5 9 8 7 8 7 7 9 8 9 9 10 11 13 15 16 17 17 18 16 16 15 12 10 11 12 12 13 11
9 11 6 6 6 3 3 7 6 2 8 4 9 11 10 9 8 7 6 6 6 7 7 7 7 8 10 12 13 15 16 16 17 22 16 15 13 13 12 14 14 14 14 12
9 6 5 3 3 7 2 3 5 10 10 5 13 5 15 15 10 9 7 6 5 5 4 6 6 7 9 11 13 14 14 17 17 17 17 16 16 17 16 15 15 17 15 15
8 5 2 7 7 4 6 1 5 10 11 6 14 6 10 11 10 10 8 5 5 4 3 6 8 9 8 9 13 13 13 15 15 17 18 17 17 17 16 17 17 15 15 12
9 5 7 4 5 8 7 2 5 9 8 12 8 4 9 3 5 2 12 8 7 5 4 6 8 9 9 11 12 13 14 15 17 19 17 17 18 17 16 16 17 16 15 14
8 5 6 8 5 8 6 8 11 9 7 6 6 6 11 15 11 10 11 11 8 6 7 7 8 11 10 9 11 14 15 18 20 19 16 17 18 17 16 17 16 17 15 14
5 8 5 8 8 7 4 8 8 13 11 12 5 4 5 8 8 7 10 10 8 3 5 8 9 10 11 13 14 15 17 20 20 17 18 17 17 16 15 15 16 16 15 13
2 4 5 7 9 9 9 6 7 10 12 9 3 11 8 5 4 4 5 5 2 3 5 8 10 8 10 13 15 17 18 18 19 18 17 16 18 15 15 17 18 15 15 14
3 2 1 3 6 8 9 5 7 5 7 9 2 6 6 10 3 3 5 3 3 3 5 6 6 11 12 13 17 16 16 16 17 17 15 16 18 20 22 21 20 17 16 14
5 4 6 5 8 10 8 7 5 4 4 6 7 5 4 7 5 2 3 1 3 2 4 5 8 12 14 17 17 14 16 17 16 17 17 20 21 21 18 15 15 15 12 9
5 4 3 6 5 5 8 7 6 5 3 4 5 4 5 6 6 5 5 6 5 5 5 8 11 15 18 18 14 15 15 16 16 15 20 18 16 17 17 15 13 12 5 4
3 3 6 10 7 6 6 8 5 2 4 6 8 5 6 4 6 7 6 6 6 6 9 12 15 17 16 14 16 16 16 14 14 17 16 13 18 21 14 16 14 10 8 3
3 2 4 6 7 2 3 6 8 6 5 5 6 7 4 5 6 4 5 5 7 7 10 14 16 15 16 16 14 15 12 13 16 15 12 15 19 16 15 14 16 9 8 5
3 4 4 7 5 4 4 5 8 8 7 6 9 7 8 5 5 5 4 5 5 8 12 14 14 14 13 14 13 13 13 15 12 11 14 18 20 18 14 13 16 14 7 7
2 3 2 4 3 2 3 4 3 5 7 6 6 5 4 3 3 4 2 4 6 10 12 13 13 12 13 13 12 12 13 11 11 12 15 18 16 18 16 13 15 16 14 11
1 3 3 4 2 4 5 7 6 6 5 7 9 8 1 1 1 2 3 4 8 10 11 11 12 11 11 12 11 11 11 11 11 14 14 15 19 21 18 16 15 14 14 11
5 1 2 3 3 1 6 3 6 8 5 6 2 4 4 4 3 3 4 6 8 9 9 10 10 9 9 10 10 9 10 11 13 12 14 16 17 19 18 17 17 18 18 17
3 2 2 3 1 3 4 1 6 10 4 6 7 2 2 2 4 5 5 6 6 7 6 8 8 8 7 8 7 8 10 11 13 13 13 14 13 13 15 15 15 14 15 15
5 2 3 1 2 2 6 2 7 7 4 6 6 4 2 3 8 11 4 4 5 6 5 7 8 8 7 7 9 9 10 11 13 13 12 12 14 17 18 18 22 21 17 17
2 2 5 2 1 4 5 5 6 5 5 4 6 5 1 4 6 5 3 4 4 4 5 6 7 6 7 8 10 10 10 12 11 9 9 11 12 16 17 17 20 26 27 28
4 4 4 1 2 3 6 5 7 5 3 2 4 3 3 5 4 3 3 4 3 3 5 5 5 5 5 8 9 10 11 10 10 9 9 12 16 15 12 15 18 16 14 13
2 5 4 6 5 3 4 5 6 3 3 3 3 4 5 5 4 2 4 3 2 2 3 4 4 2 5 7 10 10 9 10 10 12 15 16 14 12 12 15 17 17 16 16
4 2 2 4 4 3 3 6 5 5 5 5 6 5 4 6 4 4 2 1 0 1 3 3 5 5 5 7 10 10 10 11 14 14 13 14 13 12 12 12 17 20 17 16
6 2 2 3 6 0 4 3 5 7 6 6 5 5 6 6 4 3 2 2 2 4 3 4 4 5 6 7 7 10 11 13 11 12 14 14 11 12 14 18 18 15 20 18
12 8 5 7 7 7 4 7 7 6 5 4 5 7 6 5 4 3 4 2 4 4 5 3 4 5 6 10 10 10 11 12 13 11 12 11 12 13 13 11 11 16 19 18

GFSCGP_850_spd_279.txt.gz
Wind_Speed
18 11 6 8 12 8 7 10 5 5 5 4 5 7 8 9 12 13 8 9 8 9 11 9 12 11 12 11 12 12 13 15 15 16 13 13 13 12 10 10 11 13 12 13
11 8 7 6 7 5 6 8 14 7 3 5 8 8 6 8 9 16 9 8 11 13 12 9 8 7 8 9 8 12 14 15 16 16 14 13 13 11 12 7 16 6 12 13
7 13 3 3 3 10 10 16 14 10 3 11 3 14 14 11 11 11 9 8 7 9 9 9 5 5 6 6 9 12 14 14 15 18 16 15 13 13 13 16 17 19 18 14
6 5 3 7 4 9 6 7 9 9 9 13 19 12 18 14 10 8 5 7 5 9 9 7 5 6 6 8 11 12 13 14 16 18 19 17 17 18 17 14 15 19 16 15
5 6 3 1 9 10 10 12 14 16 14 17 8 5 7 13 8 7 6 7 6 9 9 9 13 12 7 7 11 14 14 16 16 19 18 16 17 18 17 16 15 16 15 16
8 4 5 8 4 4 7 13 17 16 8 6 8 8 14 10 12 5 12 10 10 9 9 9 12 7 9 12 13 17 16 18 20 19 17 18 19 17 17 15 14 14 16 13
5 6 6 7 13 3 9 15 12 13 7 9 12 2 8 13 16 12 15 12 10 5 7 5 5 14 12 13 11 18 18 19 17 21 19 20 18 17 16 15 14 16 14 14
9 5 8 5 7 10 19 8 8 14 15 15 12 6 5 9 11 14 13 8 5 2 3 5 9 10 13 15 17 13 15 16 20 18 18 17 17 15 17 18 18 15 14 14
6 6 4 4 7 8 13 12 16 11 19 14 8 11 10 9 7 4 4 5 0 2 4 9 9 9 15 13 16 10 16 17 20 17 17 17 19 19 18 19 15 14 15 14
6 12 4 7 7 2 13 9 10 8 7 9 17 10 7 10 6 4 2 2 5 2 11 8 10 13 12 17 15 16 17 18 18 16 17 18 17 17 19 18 15 14 12 11
11 6 1 9 8 11 12 8 6 4 7 8 9 7 9 9 11 9 7 5 11 10 9 11 12 16 16 15 18 18 17 18 16 17 18 15 16 19 16 17 14 12 11 6
7 6 8 6 7 4 4 8 6 8 7 7 11 5 4 10 14 9 7 8 9 10 12 14 18 17 17 18 18 17 16 16 17 17 15 15 18 18 15 17 14 12 8 7
7 3 9 7 7 2 6 7 8 4 7 5 10 6 8 9 4 11 12 12 10 12 13 17 17 17 16 18 16 15 16 16 15 15 15 21 20 14 15 17 15 10 9 6
3 3 5 8 8 4 4 6 9 7 7 11 6 6 7 6 10 7 9 9 9 12 16 17 14 13 16 15 14 14 14 14 13 14 20 19 18 15 17 16 18 11 8 8
6 1 1 5 4 4 3 6 7 10 8 6 10 11 9 10 11 10 10 7 12 11 14 14 11 15 15 13 12 13 13 12 13 14 18 22 16 16 15 12 11 14 10 10
2 2 7 6 3 1 1 3 5 6 6 8 10 6 5 6 8 9 6 11 12 14 13 10 13 13 13 12 11 12 11 12 13 16 15 17 21 21 19 15 13 12 11 9
4 1 6 8 3 6 2 9 10 10 9 9 10 10 9 5 2 6 6 4 8 11 10 10 12 11 10 11 11 10 11 11 12 13 14 14 20 21 20 16 17 18 17 15
1 3 4 4 5 1 7 9 5 10 8 9 11 10 10 10 7 4 6 10 10 9 9 9 10 9 9 10 8 9 10 11 12 12 14 16 19 15 12 11 14 15 16 15
5 6 1 4 2 7 4 10 9 11 6 9 10 11 6 6 2 10 7 7 7 7 7 8 8 8 6 7 7 8 10 10 11 13 14 14 13 13 14 15 14 16 14 16
5 5 2 4 3 4 8 9 11 10 2 7 12 11 12 11 6 6 2 7 7 6 5 7 7 6 6 6 8 9 11 10 10 11 11 10 12 15 21 20 20 24 20 17
3 3 3 3 1 7 9 11 12 5 6 11 10 9 9 8 8 5 7 5 5 4 5 5 5 5 6 6 8 10 10 10 8 8 6 7 9 11 12 17 14 14 14 11
4 5 5 3 3 5 14 8 8 6 5 7 7 8 5 3 4 6 4 3 3 4 4 4 3 3 4 7 9 9 8 7 7 6 7 7 10 11 15 15 16 17 16 18
5 7 5 7 5 6 10 7 5 5 6 7 6 5 3 3 3 5 1 1 2 3 3 3 3 1 4 7 7 7 6 7 7 10 9 7 10 11 16 19 16 14 15 16
7 5 4 5 5 8 5 4 4 5 5 5 4 3 2 3 4 1 0 1 0 2 2 2 3 2 4 6 6 5 6 7 5 7 8 10 11 14 13 15 14 17 14 15
11 8 9 8 11 6 4 5 3 3 4 4 4 3 3 4 2 2 1 1 2 2 2 1 2 3 4 5 5 7 8 7 9 9 7 8 8 9 9 14 14 15 18 12
16 9 5 5 13 10 8 3 2 2 3 3 2 3 3 3 3 2 3 3 2 1 1 1 1 3 4 5 5 6 6 5 5 7 7 9 8 5 8 7 9 13 18 18

GFSCGP_850_spd_285.txt.gz
Wind_Speed
16 3 7 12 4 7 19 11 11 11 12 6 23 19 24 26 14 17 12 13 12 14 14 12 10 9 7 7 6 10 14 18 18 12 15 15 15 17 9 10 10 8 13 19
5 5 6 8 10 4 8 5 4 5 6 17 23 20 14 13 14 10 15 13 11 10 10 7 7 7 7 5 7 13 13 12 12 11 20 20 16 16 16 17 14 14 14 15
6 5 6 4 6 9 7 7 7 6 2 16 21 12 6 8 10 7 12 13 14 13 10 8 7 6 4 7 11 11 7 8 13 21 23 19 17 13 15 17 14 16 15 11
6 7 2 6 9 8 7 8 9 10 8 5 1 5 7 5 5 7 16 16 15 12 9 7 5 8 8 9 7 11 9 15 19 22 24 22 19 19 17 17 17 15 9 8
8 16 14 12 6 4 5 11 10 14 12 5 5 7 3 5 3 3 13 16 14 9 7 4 8 11 10 8 9 11 14 18 24 21 19 21 20 16 12 12 12 10 8 14
6 15 7 1 13 10 9 11 10 6 5 5 8 7 7 4 3 6 16 15 10 5 3 3 9 10 10 7 9 10 16 22 21 21 22 21 16 16 16 17 16 14 10 10
2 5 5 10 9 10 10 8 4 6 5 3 4 12 3 5 6 15 14 12 7 12 13 8 9 9 11 13 13 15 19 20 21 21 19 21 21 18 17 16 16 14 11 11
6 3 2 3 3 4 6 6 3 4 3 3 9 6 1 4 15 18 14 14 12 8 5 8 7 12 18 13 11 14 17 19 20 19 20 21 20 21 20 17 16 12 10 10
5 7 5 7 5 7 6 5 5 1 6 6 4 3 3 5 11 16 15 16 10 11 13 16 19 19 16 16 19 23 20 20 19 21 21 22 22 17 16 17 16 11 7 8
6 3 6 11 5 10 7 5 7 5 3 4 4 2 2 4 8 11 14 13 11 13 17 18 15 12 13 17 19 22 17 16 18 23 25 22 21 19 17 18 13 11 10 8
5 5 7 6 5 6 6 6 6 2 5 3 2 1 4 7 13 10 15 15 14 18 19 16 15 14 17 21 16 17 16 18 19 23 23 19 17 18 22 17 14 12 10 12
6 2 3 6 8 7 8 7 5 4 2 4 4 1 7 16 17 21 15 10 15 12 12 14 13 16 18 19 16 15 17 18 20 21 25 20 18 16 15 18 14 12 9 8
5 3 3 3 8 6 6 7 7 5 6 5 4 3 13 19 20 17 10 17 20 15 13 13 13 16 19 16 13 13 13 18 19 20 21 22 24 19 19 16 14 11 9 9
7 3 1 3 3 2 6 8 7 6 4 9 6 8 4 9 7 12 21 22 19 17 15 11 14 15 15 13 14 12 16 19 17 20 20 20 23 20 19 16 14 14 12 10
4 4 6 5 6 6 9 13 14 10 9 6 5 8 7 8 13 16 13 21 17 16 14 11 13 12 12 13 13 15 14 17 18 20 19 21 17 18 19 20 19 17 12 8
2 3 5 2 7 19 17 15 13 12 12 11 8 5 14 19 17 14 19 18 17 14 11 8 10 10 13 12 12 13 15 16 18 18 18 18 18 19 17 18 18 18 15 16
2 2 3 4 3 5 8 11 12 13 11 8 7 4 11 14 18 18 20 18 15 12 10 12 10 10 10 8 10 12 12 14 17 16 21 17 19 14 17 18 18 21 22 19
3 3 3 4 1 5 4 11 14 17 13 12 9 9 20 22 21 19 15 14 11 9 9 9 7 8 7 8 10 12 10 11 13 15 17 20 19 19 16 17 19 21 22 21
7 3 1 3 4 6 13 9 3 3 6 10 8 15 16 20 23 18 11 11 8 8 8 9 7 6 7 8 10 10 11 12 10 12 16 17 15 17 18 16 17 15 16 17
13 12 2 2 5 4 4 13 23 8 4 15 17 16 13 10 4 3 9 7 7 8 7 7 9 7 6 8 9 11 9 10 11 9 14 13 14 16 19 19 17 16 16 22
4 6 7 5 4 4 7 21 9 7 4 17 17 15 12 9 8 10 4 6 5 6 7 6 6 7 9 11 10 11 9 9 9 11 13 14 13 15 17 17 18 19 18 14
2 2 3 5 5 3 14 9 6 2 17 15 15 12 16 17 12 7 4 3 2 4 4 5 1 5 7 8 8 8 10 9 8 10 10 11 13 14 14 12 11 13 14 13
4 3 3 4 3 11 12 17 14 13 14 11 8 6 14 12 7 3 4 1 2 3 2 5 4 5 7 8 7 5 6 6 9 10 10 9 11 11 12 16 10 5 7 9
6 17 4 5 6 17 14 13 11 9 7 6 8 6 6 9 4 3 0 3 3 4 2 5 4 6 6 5 5 4 6 8 5 6 7 8 6 7 9 13 17 16 9 6
7 4 3 4 10 15 11 8 6 6 8 6 6 4 7 5 4 3 3 3 2 4 1 2 2 4 2 4 6 6 6 6 5 6 7 8 9 9 11 9 9 12 15 17
15 7 3 1 10 8 6 5 5 5 5 4 4 3 4 3 3 1 4 1 1 2 4 2 1 4 2 3 3 4 4 6 4 5 5 8 9 13 12 13 10 7 9 14

GFSCGP_850_spd_288.txt.gz
Wind_Speed
7 3 5 12 8 5 5 4 6 6 7 18 19 17 10 8 13 12 14 13 13 10 8 6 5 0 4 3 10 10 10 12 12 13 22 23 20 16 13 11 12 12 13 11
4 7 12 4 10 14 6 3 5 16 24 22 15 11 6 10 8 11 15 13 12 8 6 1 3 3 4 3 6 7 11 13 16 22 25 24 20 15 14 15 13 12 13 12
9 13 5 8 6 7 3 3 2 14 17 20 24 9 5 5 7 8 10 9 8 6 5 1 1 2 5 3 6 11 12 14 18 24 23 22 24 21 17 15 14 12 13 13
5 7 11 9 6 6 8 5 7 15 8 5 9 5 3 0 2 12 9 11 13 6 4 2 4 5 3 5 6 4 10 17 22 21 22 21 20 17 15 14 13 11 11 11
2 5 8 9 3 5 2 2 5 4 7 6 6 5 2 4 3 6 9 12 10 5 6 2 8 2 2 3 4 9 14 17 18 23 22 20 18 16 16 17 16 12 12 12
2 2 4 2 2 7 1 9 9 5 5 5 8 4 3 2 6 6 12 13 8 5 5 3 3 3 3 2 6 13 18 21 22 25 21 22 21 17 18 17 14 13 11 11
5 6 5 6 7 7 12 8 4 5 5 2 4 7 3 4 6 9 17 13 7 6 4 7 6 3 6 9 13 18 22 17 17 19 19 23 22 20 16 15 15 12 10 7
5 8 6 6 1 2 5 6 5 2 3 4 5 3 2 1 13 13 14 10 11 7 5 10 7 6 7 13 17 20 14 17 18 21 21 19 19 18 15 17 15 9 7 6
4 4 4 5 7 4 4 3 2 4 5 5 1 1 3 8 9 15 13 12 10 12 10 7 5 7 12 15 14 15 15 16 19 25 20 16 19 22 19 15 12 9 6 10
5 1 4 5 9 11 6 2 5 4 2 3 2 1 1 8 9 10 13 13 16 16 11 5 5 10 13 14 12 10 14 17 19 22 19 18 15 16 17 15 12 8 11 11
3 4 7 6 4 3 6 5 5 5 3 4 4 2 5 6 7 9 14 13 21 16 9 5 7 11 10 9 9 12 14 17 18 21 22 20 17 17 12 13 10 10 11 9
4 4 2 1 4 5 4 4 4 5 1 3 4 1 4 14 16 20 18 20 20 13 8 7 10 11 12 9 8 10 15 15 19 20 20 21 19 16 16 13 12 9 7 6
3 4 3 7 7 8 7 4 4 6 3 2 4 3 8 15 19 17 23 21 16 10 5 7 12 10 10 11 8 11 14 17 16 19 16 18 19 19 16 14 13 11 8 6
4 2 5 5 4 3 8 10 5 7 5 0 1 8 5 6 6 18 21 18 12 6 6 8 9 9 9 10 10 11 14 17 18 16 18 16 15 17 18 18 16 11 8 8
4 2 4 8 17 18 15 13 12 9 5 5 3 5 8 8 13 20 20 17 12 8 7 6 8 9 7 8 9 11 14 17 16 17 16 16 17 18 18 18 20 15 11 9
3 1 2 8 16 19 17 15 12 13 9 7 6 3 7 12 17 22 19 13 11 8 5 5 7 6 5 8 8 9 12 14 14 15 16 16 14 16 18 21 23 23 16 16
3 3 2 4 3 7 10 9 11 10 9 2 5 2 12 10 16 18 14 11 8 3 3 3 6 4 5 7 8 9 9 11 12 14 16 18 18 16 16 20 20 22 16 13
3 2 2 3 4 5 4 5 13 13 6 7 8 6 13 17 17 15 8 6 5 4 3 4 4 3 5 6 8 7 8 9 10 15 14 15 16 15 15 15 16 16 16 16
21 2 4 4 4 2 10 2 4 2 5 5 10 14 18 21 17 9 5 5 4 2 4 5 3 3 6 8 7 7 7 8 7 13 12 14 16 16 19 17 16 16 16 18
5 5 5 2 5 3 4 10 16 10 3 4 13 14 19 14 2 4 6 1 3 4 6 5 6 5 6 8 8 6 8 9 9 12 12 12 12 13 17 17 13 13 15 17
5 4 6 3 4 3 6 16 5 5 4 5 7 6 5 3 3 10 5 3 2 4 4 3 4 6 8 7 6 7 6 9 9 12 11 10 11 12 11 8 9 12 10 11
4 3 3 3 4 2 9 7 5 6 8 8 6 4 8 11 10 8 5 5 2 1 1 2 1 4 6 6 5 4 7 6 6 4 5 9 10 11 14 9 5 6 5 5
4 0 3 3 4 6 10 16 13 7 7 4 3 8 9 12 8 6 6 4 1 1 1 2 1 3 5 2 4 3 5 5 5 5 6 7 7 11 13 15 8 4 2 4
7 11 3 4 3 12 11 9 6 4 3 1 4 6 7 7 3 3 4 2 2 4 1 2 1 2 3 2 4 5 6 3 3 2 4 7 9 10 10 9 10 11 12 8
3 5 4 3 6 9 7 4 7 7 4 2 2 1 3 1 2 2 2 1 1 4 3 2 2 2 1 3 4 5 3 3 3 3 4 7 6 9 16 17 9 7 9 15
10 4 2 4 3 3 3 6 10 6 3 2 2 5 4 3 2 3 3 2 4 4 7 6 4 3 3 4 3 3 2 3 1 1 6 9 6 12 17 17 8 8 6 9